Weather History for KRAP - February, 2012

Change the Weather History Date:

Thursday, February 2, 2012

  Actual Average Record
Temperature  
Mean Temperature 32 °F 26 °F  
Max Temperature 46 °F 38 °F 64 °F (1991)
Min Temperature 18 °F 13 °F -31 °F (1996)
Degree Days  
Heating Degree Days 33 39  
Month to date heating degree days 62 79  
Since 1 July heating degree days 3832 4235  
Cooling Degree Days 0 0  
Month to date cooling degree days 0 0  
Year to date cooling degree days 0 0  
Moisture  
Dew Point 21 °F    
Average Humidity 61    
Maximum Humidity 84    
Minimum Humidity 37    
Precipitation  
Precipitation 0.00 in 0.01 in 0.19 in (1995)
Month to date precipitation 0.00 0.02  
Year to date precipitation 0.31 0.32  
Snow  
Snow 0.00 in 0.10 in 0.90 in (1982)
Month to date snowfall 0.0 0.3  
Since 1 July snowfall 19.9 17.9  
Snow Depth 0.00 in    
Sea Level Pressure  
Sea Level Pressure 30.18 in    
Wind  
Wind Speed 13 mph (NNW)    
Max Wind Speed 32 mph    
Max Gust Speed 39 mph    
Visibility 10 miles    
Events      
T = Trace of Precipitation, MM = Missing Value Source: NWS Daily Summary

Daily Weather History Graph

Daily Weather History Graph

Search for Another Location

Airport or City:

Trip Planner

Search our weather history database for the weather conditions in past years. The results will help you decide how hot, cold, wet, or windy it might be!

Date:

Astronomy

Feb. 02, 2012 Rise Set
Actual Time 7:09 AM MST 5:03 PM MST
Civil Twilight 6:38 AM MST 5:33 PM MST
Nautical Twilight 6:03 AM MST 6:08 PM MST
Astronomical Twilight 5:30 AM MST 6:42 PM MST
Moon 12:12 PM MST 2:57 AM MST
Length of Visible Light 10h 55m
Length of Day
9h 54m
Waxing Gibbous, 74% of the Moon is Illuminated
Feb 2
Waxing Gibbous
Feb 7
Full
Feb 14
Last Quarter
Feb 21
New
Feb 29
First Quarter

Hourly Weather History & Observations

Time (MST) Temp. Windchill Dew Point Humidity Pressure Visibility Wind Dir Wind Speed Gust Speed Precip Events Conditions
12:52 AM 26.1 °F - 16.0 °F 66% 30.09 in 10.0 mi Calm Calm - N/A   Clear
1:52 AM 24.1 °F - 17.1 °F 75% 30.09 in 10.0 mi Calm Calm - N/A   Clear
2:52 AM 23.0 °F 15.8 °F 16.0 °F 74% 30.09 in 10.0 mi SSE 5.8 mph - N/A   Clear
3:52 AM 19.0 °F - 15.1 °F 85% 30.11 in 10.0 mi Calm Calm - N/A   Clear
4:52 AM 25.0 °F - 15.1 °F 66% 30.13 in 10.0 mi Calm Calm - N/A   Clear
5:52 AM 25.0 °F 16.3 °F 17.1 °F 72% 30.13 in 10.0 mi NNW 8.1 mph - N/A   Clear
6:52 AM 25.0 °F 17.1 °F 17.1 °F 72% 30.15 in 10.0 mi NW 6.9 mph - N/A   Clear
7:52 AM 24.1 °F - 17.1 °F 75% 30.17 in 10.0 mi Calm Calm - N/A   Clear
8:52 AM 33.1 °F 28.7 °F 21.0 °F 61% 30.19 in 10.0 mi WNW 4.6 mph - N/A   Clear
9:52 AM 37.9 °F 32.1 °F 19.9 °F 48% 30.18 in 10.0 mi NNW 8.1 mph - N/A   Clear
10:52 AM 39.9 °F 36.7 °F 19.9 °F 45% 30.20 in 10.0 mi West 4.6 mph - N/A   Clear
11:52 AM 43.0 °F 37.7 °F 21.9 °F 43% 30.18 in 10.0 mi NNW 9.2 mph - N/A   Mostly Cloudy
12:52 PM 46.0 °F 39.6 °F 21.0 °F 37% 30.17 in 10.0 mi North 15.0 mph - N/A   Scattered Clouds
1:52 PM 45.0 °F 37.4 °F 21.9 °F 40% 30.17 in 10.0 mi North 18.4 mph - N/A   Scattered Clouds
2:52 PM 44.1 °F 37.4 °F 23.0 °F 43% 30.20 in 10.0 mi North 13.8 mph - N/A   Overcast
3:52 PM 43.0 °F 34.8 °F 24.1 °F 47% 30.21 in 10.0 mi North 18.4 mph - N/A   Partly Cloudy
4:52 PM 41.0 °F 31.4 °F 24.1 °F 51% 30.19 in 10.0 mi North 21.9 mph 31.1 mph N/A   Scattered Clouds
5:52 PM 39.9 °F 29.0 °F 25.0 °F 55% 30.22 in 10.0 mi NNW 26.5 mph 34.5 mph N/A   Overcast
6:52 PM 39.0 °F 28.0 °F 26.1 °F 60% 30.26 in 10.0 mi NNW 25.3 mph 36.8 mph N/A   Partly Cloudy
7:52 PM 37.9 °F 26.8 °F 26.1 °F 62% 30.30 in 10.0 mi NNW 24.2 mph 32.2 mph N/A   Overcast
8:52 PM 37.0 °F 25.1 °F 26.1 °F 65% 30.30 in 10.0 mi NNW 26.5 mph 33.4 mph N/A   Overcast
9:52 PM 35.1 °F 22.5 °F 27.0 °F 72% 30.29 in 10.0 mi NNW 26.5 mph 36.8 mph N/A   Partly Cloudy
10:52 PM 34.0 °F 22.4 °F 26.1 °F 73% 30.33 in 10.0 mi NNW 20.7 mph 28.8 mph N/A   Clear
11:52 PM 33.1 °F 22.2 °F 27.0 °F 78% 30.35 in 10.0 mi NNW 17.3 mph 25.3 mph N/A   Partly Cloudy